HULIANWANG DIGUI 5C

Last updated on Wed Aug 13 2025 00:02:07 GMT+0000 (Coordinated Universal Time)

1 64958U 25159C 25224.55877992 .00000179 00000+0 19993-3 0 9991 2 64958 86.4922 27.1003 0001407 97.1672 262.9645 13.65247282 2198
UTC large
Height (km)
Speed (km/s)
/
Latitude / Longitude
Inclination (degrees)
Orbital Period (minutes)
Azimuth
Elevation
Range (km)
Doppler Factor

Next 0 passes for location: London (51.5072 / 0.1276)

Sorry there are no passes over London.